Stations météo

Publicité
Agen, France (7524): Température de l'air & dewpoint: 11.12.2017 03:00:00 - 17.12.2017 03:00:00 (CET)Agen, France (7524): Température de l'air 5cm: 11.12.2017 03:00:00 - 17.12.2017 03:00:00 (CET)Agen, France (7524): Température de l'air -20cm & Température de l'air -100cm: 11.12.2017 03:00:00 - 17.12.2017 03:00:00 (CET)Agen, France (7524): Vitesse du vent & gusts: 11.12.2017 03:00:00 - 17.12.2017 03:00:00 (CET)Agen, France (7524): Direction du vent: 11.12.2017 03:00:00 - 17.12.2017 03:00:00 (CET)Agen, France (7524): reduced air pressure: 11.12.2017 03:00:00 - 17.12.2017 03:00:00 (CET)Agen, France (7524): visibility: 11.12.2017 03:00:00 - 17.12.2017 03:00:00 (CET)Agen, France (7524): Ensoleillement: 11.12.2017 03:00:00 - 17.12.2017 03:00:00 (CET)Agen, France (7524): Quantités de précipitations: 11.12.2017 03:00:00 - 17.12.2017 03:00:00 (CET)
Date & Time tt [°C] td [°C] tt 5cm [°C] tt -20cm [°C] tt -100cm [°C] ff [km/h] ff [knt] fx [km/h] fx [knt] dd ppp [hPa] vv [km] sd [min] rr [mm]
17.12.2017 03:00:00 -1,3 -1,7 -6,1 7,9 10,9 3 2 7 4 NW 1029,6 4,1 0 0,0
17.12.2017 02:00:00 -0,7 -1,3 -6,0 8,0 10,9 0 0 4 2 N 1029,1 3,6 0 0,0
17.12.2017 01:00:00 -0,8 -1,5 -5,5 8,0 10,9 0 0 8 4 N 1028,7 0,7 0 0,0
17.12.2017 00:00:00 0,2 -0,5 -3,9 8,0 10,8 5 3 10 5 WSW 1029,0 12 0 0,0
16.12.2017 23:00:00 -0,5 -1,2 -4,7 8,1 10,9 7 4 9 5 NNW 1028,6 7 0 0,0
16.12.2017 22:00:00 0,4 -0,6 -4,3 8,1 10,9 5 3 7 4 WNW 1028,0 9 0 0,0
16.12.2017 21:00:00 2,9 1,1 -2,1 8,1 10,8 6 3 11 6 WSW 1027,3 29 0 0,0
16.12.2017 20:00:00 3,1 1,9 -3,8 8,2 10,9 8 4 10 5 WSW 1026,6 27 0 0,0
16.12.2017 19:00:00 2,1 0,8 -3,2 8,2 10,8 4 2 6 3 WSW 1025,6 20 0 0,0
16.12.2017 18:00:00 4,4 1,9 -1,2 8,2 10,9 5 3 8 5 W 1024,5 23 0 0,0
16.12.2017 17:00:00 6,1 3,3 3,5 8,1 10,8 7 4 16 8 W 1023,7 37 47 0,0
16.12.2017 16:00:00 6,8 3,6 6,9 8,1 10,8 11 6 18 10 WNW 1023,0 10 1 0,0
16.12.2017 15:00:00 6,7 3,3 7,2 8,1 10,8 12 6 16 9 NW 1022,5 53 0 0,0
16.12.2017 14:00:00 6,7 3,1 7,5 8,1 10,8 13 7 19 10 WNW 1022,3 10 0 0,0
16.12.2017 13:00:00 6,7 3,3 7,8 8,2 10,8 11 6 20 11 W 1022,0 10 1 0,0
16.12.2017 12:00:00 6,7 2,9 6,1 8,2 10,8 13 7 18 10 WNW 1021,5 10 57 0,0
16.12.2017 11:00:00 4,9 3,2 4,5 8,3 10,8 10 5 14 7 WNW 1021,3 47 60 0,0
16.12.2017 10:00:00 1,9 1,5 -2,7 8,4 10,9 8 4 9 5 NW 1020,4 10 56 0,0
16.12.2017 09:00:00 -0,3 -0,7 -4,7 8,4 10,9 6 3 8 4 NW 1019,7 14 19 0,0
16.12.2017 08:00:00 -0,4 -1,0 -4,8 8,5 10,9 5 3 7 4 W 1018,6 14 0 0,0
16.12.2017 07:00:00 -0,1 -0,7 -4,1 8,5 10,8 5 3 8 5 WNW 1017,8 10 0 0,0
16.12.2017 06:00:00 0,3 -0,4 -3,4 8,6 10,9 5 3 12 7 NW 1016,9 10 0 0,0
16.12.2017 05:00:00 0,0 -1,0 -2,9 8,6 10,9 8 4 11 6 NW 1016,5 10 0 0,0
16.12.2017 04:00:00 2,6 1,6 -2,6 8,6 10,9 5 3 9 5 WSW 1015,6 10 0 0,0
16.12.2017 03:00:00 3,1 1,5 -0,2 8,7 10,9 9 5 16 8 W 1014,7 10 0 0,0
16.12.2017 02:00:00 4,9 3,1 1,5 8,7 10,8 11 6 16 9 W 1014,0 46 0 0,0
16.12.2017 01:00:00 4,7 3,2 1,7 8,7 10,8 9 5 17 9 WSW 1013,5 10 0 0,0
16.12.2017 00:00:00 5,2 3,4 2,3 8,8 10,8 8 4 21 11 W 1013,2 38 0 0,0
15.12.2017 23:00:00 5,9 3,7 3,8 8,8 10,8 13 7 23 13 W 1012,2 10 0 0,0
15.12.2017 22:00:00 6,2 4,0 4,1 8,8 10,8 16 9 27 15 W 1011,1 55 0 0,0
15.12.2017 21:00:00 6,3 4,1 3,7 8,8 10,8 14 8 28 15 W 1010,3 60 0 0,0
15.12.2017 20:00:00 7,0 4,1 4,4 8,9 10,8 16 9 28 15 W 1009,4 10 0 0,0
15.12.2017 19:00:00 6,8 4,1 4,2 8,9 10,8 13 7 31 17 WSW 1008,8 56 0 0,0
15.12.2017 18:00:00 7,0 3,8 4,6 8,9 10,8 18 10 46 25 W 1008,3 60 0 0,2
15.12.2017 17:00:00 7,3 4,3 5,2 8,9 10,8 19 10 44 24 W 1007,4 60 3 0,8
15.12.2017 16:00:00 8,3 5,8 6,9 8,9 10,8 23 12 51 28 WSW 1007,3 2,8 23 2,0
15.12.2017 15:00:00 8,1 6,4 7,2 8,9 10,8 14 8 37 20 SW 1006,4 32 0 0,4
15.12.2017 14:00:00 7,8 5,6 6,9 8,9 10,8 21 11 44 24 WSW 1007,3 6 13 2,0
15.12.2017 13:00:00 9,4 6,1 8,5 8,8 10,8 24 13 41 22 WSW 1007,7 10 23 0,2
15.12.2017 12:00:00 8,7 6,1 6,7 8,9 10,8 18 10 33 18 SW 1008,7 10 32 0,2
15.12.2017 11:00:00 8,5 5,9 6,1 8,9 10,8 16 9 38 21 WSW 1009,1 10 31 0,0
15.12.2017 10:00:00 7,8 5,8 4,2 8,9 10,8 19 10 35 19 WSW 1008,9 55 42 0,0
15.12.2017 09:00:00 6,2 4,8 3,7 9,0 10,8 4 2 21 12 SW 1008,6 60 0 0,4
15.12.2017 08:00:00 6,8 4,8 5,2 9,0 10,8 15 8 26 14 W 1008,4 10 0 0,2
15.12.2017 07:00:00 6,7 4,5 5,1 9,0 10,8 9 5 21 11 WSW 1007,5 60 0 0,0
15.12.2017 06:00:00 6,5 4,3 5,1 9,0 10,8 13 7 24 13 SW 1006,9 60 0 0,0
15.12.2017 05:00:00 6,4 4,2 5,3 9,0 10,8 16 8 41 22 NW 1007,2 27 0 0,8
15.12.2017 04:00:00 7,6 6,1 6,7 9,0 10,8 22 12 48 26 NNW 1007,9 10 0 1,4
15.12.2017 03:00:00 8,6 7,1 7,7 9,0 10,8 29 16 52 28 NW 1007,0 10 0 1,0
15.12.2017 02:00:00 9,8 7,4 8,4 9,0 10,8 21 11 41 22 W 1006,8 10 0 0,4
15.12.2017 01:00:00 10,4 7,8 8,3 9,0 10,8 13 7 33 18 W 1007,7 10 0 0,2
15.12.2017 00:00:00 10,5 7,4 8,1 9,0 10,8 18 10 29 16 WSW 1007,9 10 0 0,0
14.12.2017 23:00:00 10,3 7,7 7,8 9,0 10,8 11 6 27 14 WSW 1008,0 10 0 0,0
14.12.2017 22:00:00 11,2 7,9 9,0 9,0 10,8 17 9 36 20 WSW 1008,0 20 0 0,0
14.12.2017 21:00:00 11,0 8,4 8,6 9,0 10,8 16 9 31 17 WSW 1008,4 10 0 0,0
14.12.2017 20:00:00 10,6 8,2 8,6 8,9 10,8 18 10 34 19 SW 1008,3 46 0 0,0
14.12.2017 19:00:00 10,8 8,0 8,9 8,8 10,8 19 11 39 21 WSW 1008,9 51 0 0,0
14.12.2017 18:00:00 11,7 8,4 9,2 8,8 10,9 21 11 40 22 WSW 1009,5 20 0 0,0
14.12.2017 17:00:00 12,0 8,7 9,4 8,7 10,8 18 10 34 18 WSW 1009,9 20 5 0,4
14.12.2017 16:00:00 12,6 9,8 11,5 8,7 10,9 21 11 38 20 WSW 1010,2 10 17 0,0
14.12.2017 15:00:00 13,1 10,1 12,2 8,6 10,8 18 10 29 16 WSW 1010,7 19 14 0,0
14.12.2017 14:00:00 12,2 9,9 11,5 8,6 10,9 18 10 41 22 WSW 1011,9 10 0 0,0
14.12.2017 13:00:00 12,8 10,0 11,9 8,5 10,8 21 12 38 21 SW 1012,4 52 1 0,2
14.12.2017 12:00:00 12,5 10,0 12,3 8,5 10,9 17 9 35 19 WSW 1013,6 9 8 0,0
14.12.2017 11:00:00 12,1 9,7 12,4 8,5 10,8 16 9 29 16 SW 1014,1 10 38 0,0
14.12.2017 10:00:00 11,7 9,8 9,9 8,4 10,8 11 6 24 13 SW 1014,9 19 13 0,0
14.12.2017 09:00:00 11,5 9,7 9,9 8,4 10,9 11 6 25 14 SW 1015,2 10 0 0,0
14.12.2017 08:00:00 11,5 9,6 9,9 8,3 10,9 15 8 29 16 WSW 1015,0 10 0 0,0
14.12.2017 07:00:00 11,7 9,8 9,9 8,2 10,8 13 7 29 16 WSW 1015,0 20 0 0,0
14.12.2017 06:00:00 11,5 9,7 10,0 8,2 10,8 13 7 31 17 WSW 1014,7 10 0 0,0
14.12.2017 05:00:00 11,6 9,8 10,1 8,2 10,9 18 10 33 18 W 1014,9 10 0 0,2
14.12.2017 04:00:00 11,8 9,7 10,4 8,1 10,9 13 7 29 16 W 1015,4 45 0 0,0
14.12.2017 03:00:00 12,1 10,0 10,1 8,1 10,9 16 9 32 18 W 1015,2 10 0 0,0
14.12.2017 02:00:00 11,8 9,7 10,0 8,0 10,9 16 8 34 18 W 1015,0 54 0 0,0
14.12.2017 01:00:00 11,6 9,8 9,5 8,0 10,8 16 9 36 20 W 1015,5 10 0 0,0
14.12.2017 00:00:00 11,5 10,4 10,3 7,9 10,9 21 11 43 23 WSW 1015,4 10 0 0,0
13.12.2017 23:00:00 11,0 10,1 9,7 7,9 10,9 24 13 44 24 WSW 1014,8 9 0 0,2
13.12.2017 22:00:00 10,4 9,2 9,3 7,9 10,9 17 9 40 21 SW 1014,8 6 0 0,0
13.12.2017 21:00:00 10,9 8,1 9,4 7,8 10,9 20 11 47 26 SW 1014,5 18 0 0,0
13.12.2017 20:00:00 11,7 7,0 9,0 7,8 10,9 26 14 49 26 WSW 1014,7 10 0 0,0
13.12.2017 19:00:00 11,6 7,1 8,2 7,8 10,9 16 9 37 20 WSW 1014,7 60 0 0,2
13.12.2017 18:00:00 9,0 8,2 6,4 7,8 10,9 9 5 22 12 WSW 1015,2 10 0 0,0
13.12.2017 17:00:00 6,7 5,8 6,3 7,8 10,9 13 7 17 9 E 1015,5 10 0 0,0
13.12.2017 16:00:00 6,4 5,3 6,5 7,8 10,9 13 7 18 10 E 1016,2 10 0 0,0
13.12.2017 15:00:00 6,0 5,0 6,2 7,8 10,9 13 7 18 10 E 1016,7 10 0 0,0
13.12.2017 14:00:00 5,1 4,1 5,9 7,8 10,9 10 6 21 11 E 1017,7 17 0 0,0
13.12.2017 13:00:00 4,4 3,5 4,9 7,8 10,9 14 8 19 11 E 1018,7 13 0 0,4
13.12.2017 12:00:00 3,6 2,4 3,6 7,9 10,9 13 7 21 11 E 1019,9 12 0 0,0
13.12.2017 11:00:00 2,4 1,4 2,5 7,9 10,9 14 8 19 11 E 1020,4 15 0 0,0
13.12.2017 10:00:00 1,6 1,0 1,3 8,0 10,9 13 7 18 10 ESE 1020,7 10 0 0,0
13.12.2017 09:00:00 1,2 0,8 0,5 8,0 10,9 13 7 21 11 ESE 1020,9 9 0 0,0
13.12.2017 08:00:00 0,7 0,4 -0,2 8,1 10,9 13 7 20 11 ESE 1021,0 6 0 0,0
13.12.2017 07:00:00 0,4 0,1 -0,4 8,1 10,8 15 8 20 11 E 1020,9 6 0 0,0
13.12.2017 06:00:00 0,6 0,3 -0,9 8,2 10,9 15 8 22 12 ESE 1020,7 5 0 0,0
13.12.2017 05:00:00 0,5 0,2 -1,7 8,2 10,9 13 7 16 9 ESE 1021,7 5 0 0,0
13.12.2017 04:00:00 0,3 -0,1 -1,6 8,3 10,9 9 5 15 8 ESE 1022,0 6 0 0,0
13.12.2017 03:00:00 0,8 0,4 -0,8 8,3 10,9 11 6 18 10 E 1021,9 3,6 0 0,0
13.12.2017 02:00:00 1,2 0,8 -0,6 8,4 10,9 13 7 16 9 ESE 1022,1 3,7 0 0,0
13.12.2017 01:00:00 1,7 1,1 -0,8 8,4 10,9 12 7 16 8 E 1022,5 6 0 0,0
13.12.2017 00:00:00 2,1 1,5 -0,1 8,4 10,9 12 6 14 8 E 1022,6 9 0 0,0
12.12.2017 23:00:00 2,3 1,7 -0,2 8,5 10,9 9 5 14 8 E 1022,1 10 0 0,0
12.12.2017 22:00:00 2,7 2,1 0,3 8,5 10,9 10 5 13 7 ESE 1021,8 12 0 0,0
12.12.2017 21:00:00 3,3 2,7 -0,4 8,5 10,8 9 5 12 7 E 1021,3 11 0 0,0
12.12.2017 20:00:00 1,8 1,1 -2,3 8,6 10,9 5 3 9 5 ESE 1021,1 10 0 0,0
12.12.2017 19:00:00 1,5 0,3 -2,6 8,6 10,9 6 4 8 4 ESE 1020,6 5 0 0,0
12.12.2017 18:00:00 4,1 2,6 -1,9 8,5 10,9 5 3 8 4 SE 1019,7 10 0 0,0
12.12.2017 17:00:00 6,8 2,9 2,3 8,5 10,8 2 1 12 7 E 1019,0 54 45 0,0
12.12.2017 16:00:00 9,0 3,8 9,9 8,5 10,8 5 3 16 8 - 1018,3 10 57 0,0
12.12.2017 15:00:00 8,3 3,5 10,0 8,5 10,9 2 1 11 6 WNW 1018,2 52 58 0,0
12.12.2017 14:00:00 6,2 3,4 7,5 8,5 10,9 9 5 19 10 W 1018,1 37 22 0,0
12.12.2017 13:00:00 5,6 3,8 7,4 8,5 10,8 11 6 21 12 WSW 1017,8 18 13 0,0
12.12.2017 12:00:00 5,4 4,5 6,8 8,5 10,8 4 2 15 8 W 1017,7 11 8 0,0
12.12.2017 11:00:00 4,6 4,0 3,7 8,6 10,9 5 3 9 5 SW 1017,2 10 0 0,0
12.12.2017 10:00:00 3,7 3,1 - - - 4 2 8 4 WSW 1015,6 10 - -
12.12.2017 09:00:00 1,9 1,3 -1,7 8,7 10,8 4 2 10 5 W 1014,8 9 0 0,0
12.12.2017 08:00:00 2,1 1,4 -0,5 8,7 10,8 8 4 16 9 WNW 1013,6 10 0 0,0
12.12.2017 07:00:00 3,1 2,4 1,3 8,7 10,8 12 6 20 11 WNW 1011,9 14 0 0,0
12.12.2017 06:00:00 4,2 3,5 2,0 8,7 10,8 14 7 18 10 W 1010,4 34 0 0,0
12.12.2017 05:00:00 5,6 4,9 4,5 8,7 10,8 11 6 18 10 WNW 1008,6 39 0 0,0
12.12.2017 04:00:00 5,8 5,1 4,4 8,8 10,8 7 4 16 8 W 1006,8 60 0 1,4
12.12.2017 03:00:00 6,3 5,3 5,5 8,8 10,8 12 6 20 11 WNW 1005,7 3,7 0 0,6
12.12.2017 02:00:00 6,5 5,1 5,3 8,8 10,8 10 6 25 13 WSW 1004,1 57 0 0,2
12.12.2017 01:00:00 6,7 5,3 6,0 8,8 10,8 13 7 34 18 WNW 1003,5 58 0 0,8
12.12.2017 00:00:00 7,1 5,7 5,6 8,9 10,8 18 10 34 19 SW 1002,3 13 0 0,8
11.12.2017 23:00:00 7,1 5,2 5,5 8,9 10,8 19 11 39 21 WSW 1000,5 60 0 0,0
11.12.2017 22:00:00 7,5 5,5 5,6 8,9 10,8 18 10 36 19 SW 999,0 10 0 0,0
11.12.2017 21:00:00 7,6 5,2 5,7 8,9 10,8 18 10 36 19 WSW 997,7 10 0 0,0
11.12.2017 20:00:00 7,7 5,8 5,8 8,9 10,8 21 11 36 20 WSW 996,2 10 0 0,0
11.12.2017 19:00:00 7,2 5,2 5,6 8,9 10,8 16 9 37 20 WSW 994,7 10 0 1,6
11.12.2017 18:00:00 8,0 6,3 7,0 8,9 10,8 20 11 45 24 WSW 993,0 10 0 1,0
11.12.2017 17:00:00 8,5 6,1 7,4 8,9 10,8 18 10 46 25 WSW 991,2 8 11 0,2
11.12.2017 16:00:00 9,7 5,7 9,1 8,9 10,8 25 13 45 24 WSW 990,1 58 14 0,0
11.12.2017 15:00:00 10,8 6,0 10,3 8,9 10,8 21 11 42 23 WSW 989,4 10 15 0,0
11.12.2017 14:00:00 9,8 5,8 9,1 8,9 10,8 18 10 36 20 W 989,2 10 0 0,0
11.12.2017 13:00:00 9,5 5,7 8,9 8,9 10,8 13 7 37 20 SW 989,0 10 0 0,0
11.12.2017 12:00:00 9,7 5,3 8,6 8,9 10,8 16 9 38 21 WSW 987,5 60 0 0,0
11.12.2017 11:00:00 9,7 6,4 8,4 8,9 10,8 18 10 40 22 WSW 987,6 10 0 0,0
11.12.2017 10:00:00 9,6 7,2 8,2 8,9 10,8 22 12 40 22 WSW 987,3 10 0 0,0
11.12.2017 09:00:00 9,4 7,3 7,9 8,9 10,8 21 11 45 25 SW 986,6 60 0 0,4
11.12.2017 08:00:00 9,5 8,1 8,4 8,9 10,8 21 11 42 23 SW 986,1 13 0 0,6
11.12.2017 07:00:00 9,3 7,9 8,1 8,9 10,8 11 6 28 15 SW 985,2 10 0 1,2
11.12.2017 06:00:00 8,6 7,8 7,4 8,9 10,8 9 5 23 12 WNW 984,5 8 0 1,4
11.12.2017 05:00:00 8,0 7,2 7,3 8,9 10,8 5 3 17 9 - 983,7 10 0 0,6
11.12.2017 04:00:00 8,1 6,9 7,4 8,8 10,8 11 6 31 17 SSW 984,1 10 0 0,2
11.12.2017 03:00:00 9,2 8,1 8,4 8,8 10,8 15 8 35 19 ESE 981,8 19 0 0,2

tt = Température de l'air
td = dewpoint
tt 5cm = Température de l'air 5cm
tt -20cm = Température de l'air -20cm
tt -100cm = Température de l'air -100cm
ff = Vitesse du vent
fx = gusts
dd = Direction du vent
ppp = reduced air pressure
vv = visibility
sd = Ensoleillement
rr = Quantités de précipitations

stations d'obs. à proximité